Location: Deurze
(52.9838°N, 6.6090°E)
Time: 19:24:48
(UTC+00:00)

Cosmos 2297 - Pass Details

Date: 11 March 2026
Orbit: 834 x 858 km, 71.0° (Epoch: 20 April)

Event Time Altitude Azimuth Distance (km) Brightness Sun altitude
Rises 20:47:57 0° 224° (SW) 3,382 6.9 -28.8°
Reaches altitude 10° 20:50:26 10° 228° (SW) 2,454 6.2 -29.1°
Maximum altitude 20:55:59 58° 308° (NW) 987 4.2 -29.7°
Drops below altitude 10° 21:01:36 10° 27° (NNE) 2,485 6.3 -30.3°
Sets 21:04:07 0° 32° (NNE) 3,428 7.0 -30.6°
